Regional Weather Roundup
Issued by NWS Mt. Holly, NJ

Home | Current Version | Previous Version | Text Only | Print | Product List | Glossary On
Versions: 1 2 3 4 5 6 7 8 9 10 11 12 13 14 15 16 17 18 19 20 21 22 23 24 25 26 27 28 29 30 31 32 33 34 35 36 37 38 39 40 41 42 43 44 45 46 47 48 49 50
000
ASUS41 KPHI 281710
RWRPHI

REGIONAL WEATHER ROUNDUP
NATIONAL WEATHER SERVICE MOUNT HOLLY NJ
100 PM EDT MON JUL 28 2014

NOTE:  "FAIR" INDICATES FEW OR NO CLOUDS BELOW 12,000 FEET WITH NO
SIGNIFICANT WEATHER AND/OR OBSTRUCTIONS TO VISIBILITY.

 * = STATION DOES NOT REPORT PRECIPITATION (E.G. RAIN, SNOW, ETC.)
        OR FOG.

NJZ015>026-281800-
SOUTHERN NEW JERSEY

CITY           SKY/WX    TMP DP  RH WIND       PRES   REMARKS
POMONA         MOSUNNY   84  64  50 W15G24    29.59S
RIO GRANDE*    SUNNY     82  64  54 W9G17     29.63S
MILLVILLE      MOSUNNY   84  64  50 W20G25    29.61S
WRIGHTSTOWN    MOSUNNY   79  65  61 W13       29.56F
MOUNT HOLLY    PTSUNNY   80  63  55 W12G23    29.58F
TRENTON        MOSUNNY   81  62  52 MISG      29.57F

$$
NJZ001>014-281800-
NORTHERN NEW JERSEY

CITY           SKY/WX    TMP DP  RH WIND       PRES   REMARKS
SUSSEX         PTSUNNY   79  64  60 SW6       29.54S
ANDOVER*         N/A     77  62  59 SW9G21    29.55F
MORRISTOWN     PTSUNNY   81  66  61 W9G20     29.55
NEWARK         PTSUNNY   82  63  52 W20G26    29.53F
TETERBORO      PTSUNNY   82  63  52 W12       29.51F
CALDWELL       MOSUNNY   79  62  56 SW10G22   29.54F
SOMERVILLE     MOSUNNY   80  62  54 W9G20     29.54F
ALLAIRE*       MOSUNNY   81  64  57 W13G18    29.56F
TOMS RIVER*    MOSUNNY   84  64  51 W13G21    29.57F

$$
PAZ043-044-047-054-055-060>062-066>071-281800-
EASTERN PENNSYLVANIA

CITY           SKY/WX    TMP DP  RH WIND       PRES   REMARKS
PHILADELPHIA   MOSUNNY   81  61  50 W25G35    29.59F
NORTH PHILA    MOSUNNY   82  60  47 W15       29.59F
BLUE BELL      MOSUNNY   81  64  57 W7        29.58F
DOYLESTOWN     PTSUNNY   78  62  57 W12G22    29.58F
QUAKERTOWN*    PTSUNNY   75  64  69 W8G17     29.60S
POTTSTOWN      PTSUNNY   78  61  55 W14G25    29.61F
LANCASTER      MOSUNNY   78  61  55 W18G26    29.62S
COATESVILLE    MOSUNNY   77  64  65 NW16G22   29.64S
READING        MOSUNNY   79  60  52 W18G24    29.59F
ALLENTOWN      CLOUDY    76  60  57 W8G18     29.58S
MOUNT POCONO   PTSUNNY   68  60  75 W15       29.61F
HAZLETON       CLOUDY    70  59  68 W8G22     29.65R
WILKES BARRE   PTSUNNY   75  61  61 SW14G20   29.56F

$$
DEZALL-MDZ008-012-015-019-020-281800-
DELAWARE AND EASTERN MARYLAND

CITY           SKY/WX    TMP DP  RH WIND       PRES   REMARKS
WILMINGTON     MOSUNNY   81  62  52 NW18      29.62S
DOVER          PTSUNNY   81  64  55 W18       29.62R
GEORGETOWN     MOSUNNY   83  61  47 VRB7G16   29.64S
EASTON         PTSUNNY   84  64  51 NW14G21   29.69S
PATUXENT       PTSUNNY   83  61  47 NW13      29.67R
OCEAN CITY     PTSUNNY   84  63  49 NW8       29.64R
WALLOPS ISLAND MOSUNNY   87  63  44 W20G26    29.66S
CAMBRIDGE      SUNNY     82  57  42 W12G18    29.66S

$$
PAZ001-021-NYZ056-072-MDZ011-DCZ001-281800-
OTHER NEARBY LOCATIONS

CITY           SKY/WX    TMP DP  RH WIND       PRES   REMARKS
HARRISBURG     PTSUNNY   78  59  51 W17       29.62S
STATE COLLEGE  PTSUNNY   70  59  68 W15G22    29.66F
WILLIAMSPORT   PTSUNNY   77  58  51 W12G22    29.57F
BINGHAMTON     LGT RAIN  70  61  73 W17G23    29.54S
NEW YORK CITY  PTSUNNY   78  63  59 W9        29.56F
BALTIMORE      MOSUNNY   84  59  42 W18G31    29.65S
WASHINGTON DC  MOSUNNY   86  57  37 W20G30    29.68S

$$



USA.gov is the U.S. government's official web portal to all federal, state and local government web resources and services.